RADUGA 22 [-]

Last updated on Jan. 23, 2021, 7:21 a.m. UTC

1 19596U 88095A   21022.22175931  .00000085  00000-0  00000-0 0  9990
2 19596  13.9171 345.2825 0004851  84.5781 146.7791  1.00306363101878
UTC
Height (km)
Latitude
Longitude
Inclination
Orbital Period
UTC large
Height (km)
Speed (km/s)
/
Latitude / Longitude
Inclination (degrees)
Orbital Period (minutes)
Azimuth
Elevation
Range (km)
Doppler Factor
iOS Compass Heading
iOS Angle

Next 30 passes for location: Hong Kong

Rise time Rise Azimuth (degrees) Set time Set Azimuth (degrees) Duration Max altitude (degrees)

No matching passes for this satellites